Regional Weather Roundup
Issued by NWS

Home | Current Version | Previous Version | Graphics & Text | Print | Product List | Glossary On
Versions: 1 2 3 4 5 6 7 8 9 10 11 12 13 14 15 16 17 18 19 20 21 22 23 24 25 26 27 28 29 30 31 32 33 34 35 36 37 38 39 40 41 42 43 44 45 46 47 48 49 50
000
ASUS43 KFSD 260210
RWRSD

WEATHER ROUNDUP FOR SOUTH DAKOTA
NATIONAL WEATHER SERVICE SIOUX FALLS SD
900 PM CDT MON MAY 25 2015

NOTE: "FAIR" INDICATES FEW OR NO CLOUDS BELOW 12,000 FEET WITH NO
SIGNIFICANT WEATHER AND/OR OBSTRUCTIONS TO VISIBILITY.


SDZ001>005-009-010-012>017-260300-
NORTHWEST AND NORTH CENTRAL SOUTH DAKOTA

CITY           SKY/WX    TMP DP  RH WIND       PRES   REMARKS
BUFFALO          N/A     56  52  86 SE3       29.87S
FAITH            N/A     56  52  86 CALM      29.92R
MOBRIDGE       MOCLDY    60  57  89 N5        29.84S
$$

SDZ012>016-024>037-041>051-057-063-072>074-260300-
SOUTHWEST AND SOUTH CENTRAL SOUTH DAKOTA

CITY           SKY/WX    TMP DP  RH WIND       PRES   REMARKS
RAPID CTY ARPT CLOUDY    53  53 100 NE12      29.90R
PIERRE         CLOUDY    60  51  72 NE10      29.83S
CUSTER         CLOUDY    50  47  89 NE5       29.94S
ELLSWORTH AFB  CLOUDY    53  53 100 NE9       29.91
PHILIP         CLOUDY    58  52  80 NE9       29.86S
PINE RIDGE     MOCLDY    54  52  93 NW5       29.86S
SPEARFISH      FAIR      50  50 100 SE3       29.95R
WINNER         CLOUDY    61  56  83 NE6       29.82S
$$

SDZ004>011-016>023-039-040-260300-
NORTHEAST SOUTH DAKOTA

CITY           SKY/WX    TMP DP  RH WIND       PRES   REMARKS
ABERDEEN       MOCLDY    62  51  67 N9        29.81F
WATERTOWN      CLEAR     56  51  84 NE10      29.80R
BROOKINGS      PTCLDY    57  54  88 N6        29.81R
SISSETON         N/A     59  52  77 NE15      29.79F
$$

SDZ017-020-022-023-036>040-048>070-260300-
SOUTHEAST SOUTH DAKOTA

CITY           SKY/WX    TMP DP  RH WIND       PRES   REMARKS
SIOUX FALLS    PTCLDY    63  58  83 N7        29.76F
HURON          CLEAR     61  50  67 E8        29.81R
CHAMBERLAIN    CLOUDY    62  51  68 NE7       29.82R
MITCHELL       CLEAR     61  55  81 N12       29.78R
YANKTON        PTCLDY    66  59  77 N7        29.73F
$$

ABBREVIATIONS USED IN REMARKS
   TC - TEMPERATURE IN CELSIUS
  WCI - WIND CHILL INDEX
   HX - HEAT INDEX
  VSB - VISIBILITY



USA.gov is the U.S. government's official web portal to all federal, state and local government web resources and services.